time_stamp(utc),avg(mph),gust(mph),direction(deg),12m_air_temp(f),sonic_u(cm/s),sonic_v(cm/s),sonic_w(cm/s),pressure,2m_air_temp(f),pyranometer(W/m^2)
"2018-05-30 00:02:07+00",8.5,9.5,,67,-122,-336,-9,1015.3,67,0
"2018-05-30 00:07:07+00",8.0,10.0,,67,-116,-318,-2,1015.34,66.8,0
"2018-05-30 00:12:07+00",7.5,9.5,,66.9,-102,-298,-6,1015.28,66.7,0
"2018-05-30 00:17:07+00",9.3,11.3,,66.6,-151,-368,-12,1015.31,66.4,0
"2018-05-30 00:22:07+00",8.6,9.6,,66.5,-172,-320,-5,1015.31,66.2,0
"2018-05-30 00:27:07+00",10.0,11.0,,66.3,-194,-374,-9,1015.31,66,0
"2018-05-30 00:32:07+00",9.7,10.7,,66,-220,-359,-2,1015.34,65.7,0
"2018-05-30 00:37:07+00",9.5,10.5,,65.8,-211,-355,-3,1015.33,65.5,0
"2018-05-30 00:42:07+00",9.8,9.8,,65.6,-200,-369,-7,1015.36,65.3,0
"2018-05-30 00:47:07+00",9.8,10.8,,65.5,-207,-373,-6,1015.33,65,0
"2018-05-30 00:52:07+00",8.4,9.4,,65.3,-197,-315,-1,1015.41,64.9,0
"2018-05-30 00:57:07+00",7.8,8.8,,65.3,-182,-291,-5,1015.51,64.8,0
"2018-05-30 01:02:07+00",7.6,8.6,,65.2,-188,-281,-5,1015.52,64.7,0
"2018-05-30 01:07:07+00",6.8,7.8,,65.3,-178,-249,1,1015.69,64.6,0
"2018-05-30 01:12:07+00",6.2,7.2,,65.3,-127,-234,-3,1015.8,64.6,0
"2018-05-30 01:17:07+00",6.4,7.4,,65.2,-164,-231,1,1015.73,64.4,0
"2018-05-30 01:22:07+00",7.3,8.3,,65.5,-197,-255,-2,1015.78,64.4,0
"2018-05-30 01:27:07+00",7.9,8.9,,65.5,-218,-274,-2,1015.71,64.3,0
"2018-05-30 01:32:07+00",6.1,6.1,,65.4,-159,-217,2,1015.82,64.3,0
"2018-05-30 01:37:07+00",6.4,7.4,,65.3,-198,-203,1,1015.84,64.4,0
"2018-05-30 01:42:07+00",6.2,7.2,,65.4,-181,-213,4,1015.81,64.4,0
"2018-05-30 01:47:07+00",5.6,6.6,,65.4,-174,-184,5,1015.93,64.4,0
"2018-05-30 01:52:07+00",6.1,6.1,,65.4,-182,-204,3,1015.81,64.4,0
"2018-05-30 01:57:07+00",6.5,7.5,,65.3,-204,-192,5,1015.93,64.4,0
"2018-05-30 02:02:07+00",7.7,8.7,,65.3,-245,-231,1,1015.97,64.4,0
"2018-05-30 02:07:07+00",7.3,8.3,,65.3,-232,-211,1,1015.97,64.4,0
"2018-05-30 02:12:07+00",6.9,7.9,,65.3,-228,-186,3,1015.96,64.5,0
"2018-05-30 02:17:07+00",6.4,7.4,,65.3,-204,-191,0,1015.92,64.5,0
"2018-05-30 02:22:07+00",6.1,6.1,,65.4,-183,-199,-2,1015.92,64.5,0
"2018-05-30 02:27:07+00",6.8,6.8,,65.3,-180,-249,-2,1015.92,64.4,0
"2018-05-30 02:32:07+00",6.9,7.9,,65.3,-202,-237,0,1015.97,64.3,0
"2018-05-30 02:37:07+00",6.4,7.4,,65.1,-182,-223,2,1015.88,64.2,0
"2018-05-30 02:42:07+00",6.8,6.8,,65,-184,-240,-1,1015.94,64.1,0
"2018-05-30 02:47:07+00",6.8,7.8,,65,-197,-238,1,1015.89,64.1,0
"2018-05-30 02:52:07+00",7.0,7.0,,65.1,-225,-236,1,1015.8,64,0
"2018-05-30 02:57:07+00",6.5,7.5,,65.2,-210,-208,-3,1015.85,64,0
"2018-05-30 03:02:07+00",6.8,7.8,,65.2,-222,-228,-1,1015.85,63.9,0
"2018-05-30 03:07:07+00",6.3,7.3,,65.1,-195,-197,-2,1015.82,63.9,0
"2018-05-30 03:12:07+00",6.8,7.8,,65.2,-211,-212,-4,1015.81,63.9,0
"2018-05-30 03:17:07+00",5.4,6.4,,65,-170,-160,0,1015.94,63.8,0
"2018-05-30 03:22:07+00",5.3,6.3,,65,-166,-171,-3,1015.9,63.7,0
"2018-05-30 03:27:07+00",5.3,5.3,,65,-151,-184,0,1015.92,63.6,0
"2018-05-30 03:32:07+00",6.4,7.4,,65.1,-200,-212,-4,1015.93,63.5,0
"2018-05-30 03:37:07+00",5.6,6.6,,65,-163,-193,-5,1016.02,63.4,0
"2018-05-30 03:42:07+00",6.6,7.6,,64.9,-205,-227,-3,1016.01,63.4,0
"2018-05-30 03:47:07+00",7.7,8.7,,65,-217,-272,0,1015.92,63.4,0
"2018-05-30 03:52:07+00",8.6,8.6,,64.8,-240,-298,-2,1015.96,63.4,0
"2018-05-30 03:57:07+00",7.4,8.4,,64.5,-205,-261,1,1015.97,63.4,0
"2018-05-30 04:02:07+00",7.1,8.1,,64.3,-202,-249,1,1015.96,63.4,0
"2018-05-30 04:07:07+00",7.8,8.8,,64.2,-230,-268,-1,1016.05,63.4,0
"2018-05-30 04:12:07+00",7.1,8.1,,64.2,-206,-247,0,1016.01,63.4,0
"2018-05-30 04:17:07+00",7.3,8.3,,64.1,-225,-245,-2,1015.96,63.4,0
"2018-05-30 04:22:07+00",7.9,8.9,,64.3,-243,-257,-2,1015.93,63.4,0
"2018-05-30 04:27:07+00",7.4,8.4,,64.4,-191,-268,-1,1015.97,63.5,0
"2018-05-30 04:32:07+00",7.7,8.7,,64.3,-192,-287,-4,1015.92,63.4,0
"2018-05-30 04:37:07+00",7.4,8.4,,64.2,-171,-275,-5,1015.97,63.3,0
"2018-05-30 04:42:07+00",7.7,8.7,,64.1,-148,-295,-2,1015.98,63.3,0
"2018-05-30 04:47:07+00",8.1,9.1,,64,-183,-305,1,1015.99,63.3,0
"2018-05-30 04:52:07+00",7.7,8.7,,63.9,-166,-289,-4,1016.01,63.3,0
"2018-05-30 04:57:07+00",7.5,8.5,,63.7,-136,-297,-5,1016.14,63.1,0
"2018-05-30 05:02:07+00",6.9,7.9,,63.6,-129,-264,-2,1016.01,63.1,0
"2018-05-30 05:07:07+00",6.8,7.8,,63.6,-114,-264,-8,1015.95,63,0
"2018-05-30 05:12:07+00",6.6,6.6,,63.5,-116,-257,-6,1016.01,62.9,0
"2018-05-30 05:17:07+00",7.1,8.1,,63.5,-128,-272,-5,1015.95,62.9,0
"2018-05-30 05:22:07+00",5.2,6.2,,63.2,-47,-210,1,1016.02,62.9,0
"2018-05-30 05:27:07+00",5.6,6.6,,63,-61,-225,-4,1016.09,62.7,0
"2018-05-30 05:32:07+00",5.0,7.0,,63.1,-28,-208,-3,1016.15,62.5,0
"2018-05-30 05:37:07+00",5.2,6.2,,63,-32,-211,1,1016.12,62.5,0
"2018-05-30 05:42:07+00",5.9,6.9,,62.7,-67,-239,2,1016.12,62.4,0
"2018-05-30 05:47:07+00",5.5,6.5,,62.5,-78,-220,-3,1016.16,62.3,0
"2018-05-30 05:52:07+00",3.7,4.7,,62.4,5,-146,-2,1016.15,62.1,0
"2018-05-30 05:57:07+00",4.4,4.4,,62,33,-178,-7,1016.18,61.8,0
"2018-05-30 06:02:07+00",4.3,4.3,,61.9,11,-176,-6,1016.18,61.6,0
"2018-05-30 06:07:07+00",4.4,4.4,,61.9,34,-179,-7,1016.16,61.3,0
"2018-05-30 06:12:07+00",4.7,4.7,,61.9,-19,-190,1,1016.12,61.4,0
"2018-05-30 06:17:07+00",3.5,3.5,,61.8,33,-140,-5,1016.2,61.5,0
"2018-05-30 06:22:07+00",3.7,4.7,,61.9,59,-144,-4,1016.12,61.5,0
"2018-05-30 06:27:07+00",3.6,5.6,,61.8,11,-152,4,1016.16,61.6,0
"2018-05-30 06:32:07+00",3.9,4.9,,61.8,10,-165,0,1016.2,61.7,0
"2018-05-30 06:37:07+00",3.5,4.5,,61.7,49,-133,-2,1016.16,61.6,0
"2018-05-30 06:42:07+00",3.9,4.9,,61.2,132,-103,0,1016.28,61.3,0
"2018-05-30 06:47:07+00",4.9,5.9,,61,120,-167,0,1016.21,61.1,0
"2018-05-30 06:52:07+00",4.4,5.4,,60.8,102,-154,-10,1016.31,60.9,0
"2018-05-30 06:57:07+00",4.4,5.4,,60.8,91,-159,2,1016.3,60.9,0
"2018-05-30 07:02:07+00",5.3,6.3,,60.7,103,-199,-8,1016.22,60.8,0
"2018-05-30 07:07:07+00",4.6,5.6,,60.7,134,-141,-3,1016.41,60.8,0
"2018-05-30 07:12:07+00",4.8,5.8,,60.7,102,-178,3,1016.31,60.8,0
"2018-05-30 07:17:07+00",5.2,5.2,,60.8,130,-178,-3,1016.34,60.8,0
"2018-05-30 07:22:07+00",5.6,6.6,,60.9,163,-173,-4,1016.28,61,0
"2018-05-30 07:27:07+00",5.0,6.0,,60.9,155,-151,-9,1016.37,60.9,0
"2018-05-30 07:32:07+00",5.2,6.2,,60.8,104,-198,2,1016.31,60.9,0
"2018-05-30 07:37:07+00",5.6,6.6,,60.9,134,-196,-2,1016.39,60.9,0
"2018-05-30 07:42:07+00",5.2,5.2,,60.9,73,-210,0,1016.37,60.9,0
"2018-05-30 07:47:07+00",6.0,7.0,,61,134,-222,-14,1016.4,61,0
"2018-05-30 07:52:07+00",5.9,6.9,,61,153,-201,-8,1016.42,61.1,0
"2018-05-30 07:57:07+00",6.5,7.5,,61,137,-241,-11,1016.52,61.1,0
"2018-05-30 08:02:07+00",6.4,7.4,,61,145,-227,3,1016.55,61.1,0
"2018-05-30 08:07:07+00",6.5,7.5,,61.2,158,-228,-8,1016.64,61.2,0
"2018-05-30 08:12:07+00",6.7,7.7,,61.2,162,-231,-16,1016.72,61.2,0
"2018-05-30 08:17:07+00",6.0,7.0,,61.2,147,-206,6,1016.78,61.2,0
"2018-05-30 08:22:07+00",6.8,7.8,,61.2,152,-245,-5,1016.81,61.2,0
"2018-05-30 08:27:07+00",6.6,7.6,,61.3,127,-252,-5,1016.87,61.3,0
"2018-05-30 08:32:07+00",6.7,7.7,,61.3,129,-256,-11,1016.98,61.3,0
"2018-05-30 08:37:07+00",6.0,7.0,,61.4,93,-235,4,1016.95,61.4,0
"2018-05-30 08:42:07+00",6.3,7.3,,61.5,102,-245,-10,1017.08,61.5,0
"2018-05-30 08:47:07+00",6.0,7.0,,61.5,81,-239,-2,1017.1,61.6,0
"2018-05-30 08:52:07+00",4.6,6.6,,61.6,49,-182,8,1017.21,61.6,0
"2018-05-30 08:57:07+00",4.4,6.4,,61.7,47,-179,4,1017.17,61.7,0
"2018-05-30 09:02:07+00",5.2,6.2,,61.8,80,-206,-8,1017.25,61.8,0
"2018-05-30 09:07:07+00",4.7,5.7,,61.8,38,-183,7,1017.3,61.9,0
"2018-05-30 09:12:07+00",5.0,6.0,,61.9,42,-201,-1,1017.31,61.9,0
"2018-05-30 09:17:07+00",4.3,5.3,,62,22,-172,-3,1017.4,62,0
"2018-05-30 09:22:07+00",4.4,5.4,,62.2,29,-175,-3,1017.41,62.1,0
"2018-05-30 09:27:07+00",5.0,6.0,,62.3,40,-194,-2,1017.4,62.3,0
"2018-05-30 09:32:07+00",4.3,5.3,,62.4,73,-162,1,1017.5,62.4,0
"2018-05-30 09:37:07+00",5.0,6.0,,62.3,77,-172,-33,1017.58,62.3,0
"2018-05-30 09:42:07+00",4.3,5.3,,62.2,57,-152,-35,1017.56,62.3,0
"2018-05-30 09:47:07+00",4.5,5.5,,62.2,63,-160,-27,1017.74,62.3,0
"2018-05-30 09:52:07+00",4.2,5.2,,62.2,77,-137,-32,1017.76,62.2,0
"2018-05-30 09:57:07+00",4.1,5.1,,62.2,62,-146,-29,1017.88,62.2,0
"2018-05-30 10:02:07+00",4.1,5.1,,62.2,77,-129,-35,1017.86,62.2,0
"2018-05-30 10:07:07+00",3.6,4.6,,62.2,94,-96,-14,1017.93,62.2,0
"2018-05-30 10:12:07+00",3.4,4.4,,62.1,111,-58,-21,1017.92,62.3,0
"2018-05-30 10:17:07+00",3.6,4.6,,62.2,109,-70,-22,1018.04,62.3,0
"2018-05-30 10:22:07+00",4.1,5.1,,62.2,149,-40,-25,1018.17,62.3,0
"2018-05-30 10:27:07+00",4.3,4.3,,62.2,153,-39,-30,1018.1,62.4,0
"2018-05-30 10:32:07+00",3.9,4.9,,62.2,137,-43,-21,1018.17,62.4,0
"2018-05-30 10:37:07+00",3.5,4.5,,62.4,111,-53,-15,1018.19,62.6,0
"2018-05-30 10:42:07+00",3.2,3.2,,62.5,100,-58,-25,1018.17,62.6,0
"2018-05-30 10:47:07+00",3.1,3.1,,62.5,69,-110,-7,1018.13,62.7,0
"2018-05-30 10:52:07+00",3.6,4.6,,62.6,49,-125,-33,1018.17,62.8,0.5
"2018-05-30 10:57:07+00",4.5,5.5,,62.7,49,-161,-44,1018.25,62.8,0.6
"2018-05-30 11:02:07+00",4.2,5.2,,62.9,36,-156,-33,1018.35,63,0
"2018-05-30 11:07:07+00",3.2,4.2,,63.1,-2,-118,-19,1018.45,63.2,0.2
"2018-05-30 11:12:07+00",3.2,4.2,,63.2,14,-108,-14,1018.51,63.2,2.2
"2018-05-30 11:17:07+00",4.9,5.9,,63.2,97,-159,-35,1018.54,63.3,2.8
"2018-05-30 11:22:07+00",6.2,6.2,,63.2,177,-178,-51,1018.62,63.5,3.1
"2018-05-30 11:27:07+00",6.0,7.0,,63.2,207,-117,-40,1018.62,63.4,1.4
"2018-05-30 11:32:07+00",5.8,6.8,,62.9,202,-111,-31,1018.59,63.2,2.6
"2018-05-30 11:37:07+00",5.9,6.9,,62.8,224,-85,-27,1018.5,63.2,6.3
"2018-05-30 11:42:07+00",5.1,6.1,,62.5,201,-61,-27,1018.45,62.9,11.5
"2018-05-30 11:47:07+00",5.8,6.8,,62.3,220,-83,-26,1018.48,62.8,15.9
"2018-05-30 11:52:07+00",4.9,5.9,,62.1,168,-84,-22,1018.59,62.6,18.7
"2018-05-30 11:57:07+00",6.4,7.4,,62,224,-133,-44,1018.68,62.5,23.3
"2018-05-30 12:02:07+00",6.3,7.3,,61.9,252,-122,-13,1018.67,62.4,29.1
"2018-05-30 12:07:07+00",6.1,6.1,,62,236,-112,-15,1018.71,62.5,34.7
"2018-05-30 12:12:07+00",6.9,7.9,,62,285,-94,-37,1018.75,62.6,39
"2018-05-30 12:17:07+00",8.6,10.6,,62,308,-204,-59,1018.86,62.5,30.3
"2018-05-30 12:22:07+00",6.2,7.2,,62,216,-162,-17,1018.84,62.5,42.1
"2018-05-30 12:27:07+00",9.0,11.0,,62.4,257,-287,-22,1018.84,62.8,58.3
"2018-05-30 12:32:07+00",9.9,10.9,,62.7,323,-285,-21,1018.92,63.1,54.9
"2018-05-30 12:37:07+00",9.0,11.0,,62.7,260,-286,26,1018.98,63.1,51.9
"2018-05-30 12:42:07+00",9.4,11.4,,62.7,252,-326,-9,1018.98,63.1,80.2
"2018-05-30 12:47:07+00",9.5,11.5,,62.7,299,-285,0,1018.97,63.2,69.7
"2018-05-30 12:52:07+00",9.4,10.4,,62.6,292,-283,-18,1018.96,63.2,78.3
"2018-05-30 12:57:07+00",8.2,9.2,,62.9,271,-229,18,1018.99,63.5,96.9
"2018-05-30 13:02:07+00",9.0,10.0,,63,279,-268,11,1019.05,63.7,94.5
"2018-05-30 13:07:07+00",9.5,10.5,,62.8,353,-212,17,1019.01,63.7,87.3
"2018-05-30 13:12:07+00",8.7,10.7,,63.3,325,-205,-9,1019.02,63.9,114.1
"2018-05-30 13:17:07+00",9.0,10.0,,63.2,329,-234,24,1019.13,64,112.8
"2018-05-30 13:22:07+00",9.6,12.6,,63.3,338,-255,4,1019,64.1,157.7
"2018-05-30 13:27:07+00",10.6,11.6,,64.2,404,-235,-5,1018.9,65.1,280.3
"2018-05-30 13:32:07+00",10.9,12.9,,63.8,442,-207,15,1018.89,65.1,277
"2018-05-30 13:37:07+00",10.6,12.6,,64.5,430,-203,3,1018.91,65.6,206.8
"2018-05-30 13:42:07+00",10.0,11.0,,65.1,391,-221,13,1018.88,66.3,230.4
"2018-05-30 13:47:07+00",9.8,10.8,,64.9,392,-199,-10,1018.97,66.1,208.8
"2018-05-30 13:52:07+00",10.3,12.3,,64.7,434,-180,-10,1019.03,66,222.5
"2018-05-30 13:57:07+00",11.1,12.1,,64.5,483,-132,-18,1019.11,65.9,221.7
"2018-05-30 14:02:07+00",10.3,12.3,,64.4,422,-140,-4,1019.18,66,199.4
"2018-05-30 14:07:07+00",10.9,12.9,,64.3,465,-125,-3,1019.31,65.9,207.8
"2018-05-30 14:12:07+00",11.6,13.6,,64.1,499,-126,-2,1019.22,65.8,235
"2018-05-30 14:17:07+00",10.9,12.9,,64,475,-104,20,1019.26,65.6,237.2
"2018-05-30 14:22:07+00",11.6,13.6,,64.1,494,-137,5,1019.3,65.6,210.5
"2018-05-30 14:27:07+00",11.6,14.6,,64.1,511,-85,3,1019.29,65.7,218.3
"2018-05-30 14:32:07+00",11.5,13.5,,64,502,-105,12,1019.37,65.6,245.3
"2018-05-30 14:37:07+00",12.0,14.0,,64,524,-64,4,1019.33,65.6,214
"2018-05-30 14:42:07+00",11.7,12.7,,63.8,521,-18,15,1019.33,65.8,280.4
"2018-05-30 14:47:07+00",12.4,13.4,,63.8,553,-30,6,1019.37,65.8,218.4
"2018-05-30 14:52:07+00",12.2,15.2,,63.7,547,-6,23,1019.36,65.6,273.2
"2018-05-30 14:57:07+00",11.5,13.5,,63.7,517,-66,15,1019.3,65.6,251.7
"2018-05-30 15:02:07+00",13.0,14.0,,63.7,581,-40,23,1019.4,65.8,264.1
"2018-05-30 15:07:07+00",12.1,13.1,,63.8,541,-72,14,1019.49,65.8,222.2
"2018-05-30 15:12:07+00",13.9,15.9,,63.6,616,-28,2,1019.41,65.9,346.8
"2018-05-30 15:17:07+00",14.8,15.8,,63.8,657,-31,15,1019.41,66.1,281
"2018-05-30 15:22:07+00",14.1,15.1,,63.4,628,-64,-12,1019.49,65.8,202.9
"2018-05-30 15:27:07+00",14.4,16.4,,63.1,638,-18,10,1019.56,65.3,194.8
"2018-05-30 15:32:07+00",14.5,15.5,,62.9,643,-65,-12,1019.61,64.9,173.5
"2018-05-30 15:37:07+00",12.8,14.8,,63,563,-50,-1,1019.55,64.8,194.1
"2018-05-30 15:42:07+00",14.2,16.2,,62.9,635,-21,30,1019.55,64.8,203.6
"2018-05-30 15:47:07+00",13.9,15.9,,63.2,616,1,39,1019.54,65,267
"2018-05-30 15:52:07+00",15.6,17.6,,63,700,-16,0,1019.58,65.2,242.6
"2018-05-30 15:57:07+00",16.9,17.9,,63,744,-17,22,1019.61,65.1,245.6
"2018-05-30 16:02:07+00",18.0,21.0,,62.8,794,-20,12,1019.69,65.1,266
"2018-05-30 16:07:07+00",15.8,17.8,,63,703,-39,52,1019.67,65.2,300
"2018-05-30 16:12:07+00",15.3,17.3,,63,679,-73,17,1019.67,65.4,272.8
"2018-05-30 16:17:07+00",16.1,18.1,,62.7,710,-101,3,1019.71,64.9,193.2
"2018-05-30 16:22:07+00",15.8,16.8,,62.4,687,-63,19,1019.71,64.6,211.1
"2018-05-30 16:27:07+00",15.2,17.2,,62.6,668,-27,44,1019.68,64.7,243.9
"2018-05-30 16:32:07+00",15.6,18.6,,62.8,688,-72,42,1019.69,65,281.3
"2018-05-30 16:37:07+00",17.3,19.3,,62.6,753,-105,-14,1019.65,65.1,250.5
"2018-05-30 16:42:07+00",17.3,20.3,,62.6,761,-53,5,1019.61,65.2,250
"2018-05-30 16:47:07+00",16.0,18.0,,63,705,-93,6,1019.64,65.4,272
"2018-05-30 16:52:07+00",16.3,18.3,,63,717,-151,-19,1019.62,65.5,314
"2018-05-30 16:57:07+00",16.6,18.6,,62.8,730,-142,-6,1019.56,65.3,300.7
"2018-05-30 17:02:07+00",15.7,17.7,,62.9,696,-131,5,1019.61,65.4,306.1
"2018-05-30 17:07:07+00",17.6,19.6,,62.6,783,-97,-12,1019.64,65.3,290.5
"2018-05-30 17:12:07+00",15.6,17.6,,62.7,692,-140,43,1019.64,65.2,268.4
"2018-05-30 17:17:07+00",14.1,16.1,,62.8,620,-124,81,1019.67,65.2,300.7
"2018-05-30 17:22:07+00",15.9,17.9,,62.6,699,-160,33,1019.66,65.2,298.1
"2018-05-30 17:27:07+00",16.1,18.1,,62.4,706,-167,-17,1019.75,65.1,328.1
"2018-05-30 17:32:07+00",16.2,17.2,,62.6,691,-193,-14,1019.7,65.3,331.2
"2018-05-30 17:37:07+00",17.3,20.3,,62.3,753,-198,-5,1019.67,65.2,331.6
"2018-05-30 17:42:07+00",16.2,17.2,,62.5,713,-89,59,1019.71,65.2,312.1
"2018-05-30 17:47:07+00",17.3,19.3,,62.1,752,-186,11,1019.69,64.9,300.6
"2018-05-30 17:52:07+00",16.4,17.4,,62.5,735,-78,47,1019.67,65.1,302.9
"2018-05-30 17:57:07+00",16.1,18.1,,62.5,705,-87,56,1019.71,65.3,297
"2018-05-30 18:02:07+00",17.4,19.4,,62.1,778,-94,-10,1019.62,65,282.9
"2018-05-30 18:07:07+00",17.8,19.8,,61.5,793,-100,-25,1019.64,64.4,241.6
"2018-05-30 18:12:07+00",16.1,18.1,,61.8,715,-81,13,1019.79,64.5,215.7
"2018-05-30 18:17:07+00",15.2,17.2,,61.6,683,-69,17,1019.86,64.1,205.1
"2018-05-30 18:22:07+00",15.9,17.9,,61.6,698,-141,-15,1019.85,64.1,198.8
"2018-05-30 18:27:07+00",14.0,15.0,,61.8,624,-128,-13,1019.81,64,197.5
"2018-05-30 18:32:07+00",16.1,18.1,,61.8,712,-134,18,1019.74,63.9,187.1
"2018-05-30 18:37:07+00",16.5,19.5,,61.8,736,-105,19,1019.66,64.2,204.8
"2018-05-30 18:42:07+00",17.2,18.2,,61.4,764,-68,10,1019.61,63.9,226.9
"2018-05-30 18:47:07+00",16.1,19.1,,61.8,722,-113,26,1019.47,64.3,289.5
"2018-05-30 18:52:07+00",18.3,19.3,,61.4,817,-34,8,1019.36,64.4,366.9
"2018-05-30 18:57:07+00",18.8,20.8,,61.7,842,28,31,1019.34,64.9,323.6
"2018-05-30 19:02:07+00",18.0,20.0,,61.4,803,-113,10,1019.35,64.7,266.3
"2018-05-30 19:07:07+00",18.2,19.2,,61.5,813,30,23,1019.23,64.6,260.9
"2018-05-30 19:12:07+00",16.8,19.8,,61.2,751,-16,39,1019.19,64.3,240.3
"2018-05-30 19:17:07+00",17.5,19.5,,61.3,774,-68,27,1019.14,64.3,275.9
"2018-05-30 19:22:07+00",16.7,17.7,,61.4,745,-67,38,1019.27,64.1,257.1
"2018-05-30 19:27:07+00",16.7,18.7,,61.4,728,-194,5,1019.25,64.2,246.2
"2018-05-30 19:32:07+00",15.9,17.9,,61.3,703,-70,-21,1019.3,64,215.6
"2018-05-30 19:37:07+00",17.2,18.2,,61,763,-106,5,1019.32,63.7,196.9
"2018-05-30 19:42:07+00",19.4,20.4,,60.8,868,-59,-9,1019.08,63.7,211.9
"2018-05-30 19:47:07+00",18.0,20.0,,61.1,810,-19,14,1018.94,63.6,179.2
"2018-05-30 19:52:07+00",17.3,21.3,,61.1,776,45,14,1018.83,63.6,191.8
"2018-05-30 19:57:07+00",17.6,19.6,,61.2,789,81,45,1018.73,64,214.9
"2018-05-30 20:02:07+00",17.7,18.7,,61.4,789,-32,10,1018.73,64.3,198.6
"2018-05-30 20:07:07+00",17.1,18.1,,61.5,755,117,30,1018.74,64.1,174.3
"2018-05-30 20:12:07+00",14.0,15.0,,61.9,628,40,28,1018.71,64.5,192.6
"2018-05-30 20:17:07+00",14.3,16.3,,61.7,637,24,-3,1018.74,64.6,186.3
"2018-05-30 20:22:07+00",13.8,15.8,,61.9,618,74,14,1018.73,64.8,149.6
"2018-05-30 20:27:07+00",13.4,16.4,,61.5,602,-16,21,1018.72,64.3,131.1
"2018-05-30 20:32:07+00",13.6,14.6,,61.5,600,84,19,1018.72,64.2,111.6
"2018-05-30 20:37:07+00",13.6,14.6,,61.4,604,76,11,1018.64,64.1,113.4
"2018-05-30 20:42:07+00",12.9,13.9,,61.5,568,68,42,1018.74,64.1,98
"2018-05-30 20:47:07+00",13.8,15.8,,61.6,615,89,45,1018.62,64.1,95
"2018-05-30 20:52:07+00",14.5,16.5,,61.4,636,124,44,1018.49,63.9,91
"2018-05-30 20:57:07+00",16.4,17.4,,61,720,147,31,1018.43,63.6,97.8
"2018-05-30 21:02:07+00",14.7,16.7,,61.2,655,87,14,1018.5,63.4,56.8
"2018-05-30 21:07:07+00",13.4,15.4,,61.2,588,118,21,1018.53,63.3,66.6
"2018-05-30 21:12:07+00",13.4,15.4,,61.2,585,143,23,1018.45,63.2,66.4
"2018-05-30 21:17:07+00",15.2,17.2,,61,675,81,14,1018.51,63.1,51.8
"2018-05-30 21:22:07+00",13.3,17.3,,61.2,589,113,24,1018.5,63,31.2
"2018-05-30 21:27:07+00",11.9,12.9,,61.1,514,87,42,1018.56,62.8,15.4
"2018-05-30 21:32:07+00",11.7,13.7,,61,516,77,36,1018.48,62.6,13.7
"2018-05-30 21:37:07+00",13.3,15.3,,60.8,580,137,27,1018.52,62.5,14.5
"2018-05-30 21:42:07+00",11.8,12.8,,60.9,518,93,23,1018.43,62.5,36.1
"2018-05-30 21:47:07+00",13.0,14.0,,60.8,565,81,7,1018.4,62.4,33.9
"2018-05-30 21:52:07+00",11.8,13.8,,60.9,523,29,3,1018.31,62.4,31.7
"2018-05-30 21:57:07+00",11.2,14.2,,61,498,48,41,1018.41,62.4,23.5
"2018-05-30 22:02:07+00",11.3,13.3,,61,502,41,36,1018.36,62.3,15.4
"2018-05-30 22:07:07+00",11.3,14.3,,60.9,496,57,38,1018.43,62.2,10.1
"2018-05-30 22:12:07+00",12.5,13.5,,60.7,551,70,10,1018.34,62.1,4.7
"2018-05-30 22:17:07+00",11.6,12.6,,60.9,511,86,11,1018.24,62,8.1
"2018-05-30 22:22:07+00",13.2,14.2,,60.8,578,101,16,1018.16,62.1,8.1
"2018-05-30 22:27:07+00",10.0,12.0,,61,436,74,63,1018.06,62.1,0.6
"2018-05-30 22:32:07+00",9.7,10.7,,61,420,128,50,1018.01,62.1,0
"2018-05-30 22:37:07+00",11.9,13.9,,60.9,512,146,6,1018.03,62.1,0.6
"2018-05-30 22:42:07+00",11.1,13.1,,61,483,146,33,1017.97,62.1,0.1
"2018-05-30 22:47:07+00",12.0,13.0,,60.9,518,150,18,1017.86,62,0
"2018-05-30 22:52:07+00",13.2,15.2,,60.8,582,88,7,1018.03,61.9,0
"2018-05-30 22:57:07+00",14.0,15.0,,60.6,618,106,1,1018.01,61.7,0
"2018-05-30 23:02:07+00",12.6,14.6,,60.7,553,101,18,1017.97,61.6,0
"2018-05-30 23:07:07+00",14.6,15.6,,60.5,634,177,9,1017.85,61.5,0
"2018-05-30 23:12:07+00",14.5,16.5,,60.6,627,167,21,1017.92,61.5,0
"2018-05-30 23:17:07+00",15.3,17.3,,60.4,667,151,25,1018.07,61.3,0
"2018-05-30 23:22:07+00",14.8,15.8,,60.4,646,135,20,1018.11,61.2,0
"2018-05-30 23:27:07+00",17.2,18.2,,60.2,764,85,16,1018.1,61.1,0
"2018-05-30 23:32:07+00",14.3,16.3,,60.4,630,160,49,1018.1,61.1,0
"2018-05-30 23:37:07+00",15.5,18.5,,60.3,681,128,32,1018.06,61,0
"2018-05-30 23:42:07+00",14.2,17.2,,60.3,615,151,37,1018.01,61,0
"2018-05-30 23:47:07+00",16.7,18.7,,60.1,737,142,29,1017.98,60.8,0
"2018-05-30 23:52:07+00",14.8,15.8,,60.1,644,203,34,1017.96,60.8,0
"2018-05-30 23:57:07+00",14.4,16.4,,60.1,628,193,14,1018.03,60.7,0
